Regional Weather Roundup
Issued by NWS Upton, NY

Current Version | Previous Version | Graphics & Text | Print | Product List | Glossary Off
Versions: 1 2 3 4 5 6 7 8 9 10 11 12 13 14 15 16 17 18 19 20 21 22 23 24 25 26 27 28 29 30 31 32 33 34 35 36 37 38 39 40 41 42 43 44 45 46 47 48 49 50

413
ASUS41 KOKX 240908
RWROKX

REGIONAL WEATHER ROUNDUP
NATIONAL WEATHER SERVICE NEW YORK NY
500 AM EDT TUE OCT 24 2017

NOTE: "FAIR" INDICATES FEW OR NO CLOUDS BELOW 12,000 FEET WITH NO
SIGNIFICANT WEATHER AND/OR OBSTRUCTIONS TO VISIBILITY.

NYZ071-072-176-178-NJZ106-104-241000-
NEW YORK CITY METRO AREA

CITY           SKY/WX    TMP DP  RH WIND       PRES   REMARKS
Central Park   CLOUDY    69  65  86 MISG      29.88F
Bronx Bot Gard   N/A     70  63  78 S16       29.88S
LaGuardia APRT CLOUDY    70  65  84 SE21G32   29.84F
Kennedy INTL   CLOUDY    68  67  96 SE22G31   29.86F
Breezy Point     N/A     66 N/A N/A SE23G31     N/A
Newark/Liberty CLOUDY    69  66  90 S12G20    29.85F
Teterboro      CLOUDY    72  65  78 S23G35    29.84F
$$

NYZ177-179-078>081-241000-
LONG ISLAND NEW YORK

CITY           SKY/WX    TMP DP  RH WIND       PRES   REMARKS
Jones Beach      N/A     66 N/A N/A SE22G31     N/A
Matinecock PT    N/A     70 N/A N/A SE9G18      N/A
Farmingdale    CLOUDY    68  65  90 SE20G31   29.89F
MacArthur/ISP  CLOUDY    68  66  93 SE17G25   29.92F
Shirley        CLOUDY    70  66  87 SE16G23   29.95F
Mt Sinai Harb    N/A     68 N/A N/A S18G26      N/A
Westhampton    CLOUDY    67  64  90 SE15G23   29.98F
East Hampton   CLOUDY    66  64  94 SE14G20   29.98F
Montauk          N/A     66  66 100 S12G21    30.02F
$$

NYZ052-065-067-241000-
HUDSON VALLEY

CITY           SKY/WX    TMP DP  RH WIND       PRES   REMARKS
White Plains   CLOUDY    69  65  86 SE20G26   29.87F
Larchmont Harb   N/A     70 N/A N/A SE24        N/A
Croton On Huds   N/A     70 N/A N/A S7G15       N/A
Newburgh       MOCLDY    70  66  88 S7        29.87S
Montgomery     CLOUDY    71  63  75 S10G28    29.83S
Poughkeepsie   CLOUDY    71  62  73 S12G22    29.85S
Albany         CLOUDY    70  59  68 S15G26    29.85F
$$

NJZ001-105-106-008-010-013-015-019>022-104-241000-
NEW JERSEY

CITY           SKY/WX    TMP DP  RH WIND       PRES   REMARKS
Newark/Liberty CLOUDY    69  66  90 S12G20    29.85F
Teterboro      CLOUDY    72  65  78 S23G35    29.84F
Caldwell       CLOUDY    69  67  93 S14G22    29.86S
Somerville     RAIN      70  67  90 SE7       29.81F FOG
Linden         CLOUDY    71  65  81 S13       29.86R
Perth Amboy      N/A     70 N/A N/A S13G20      N/A
Sussex         LGT RAIN  70  65  84 S8G22     29.83F
Andover          N/A     70  64  81 S9G20     29.82F
Trenton        CLOUDY    71  66  84 SE14G23   29.80F
Millville      LGT RAIN  73  69  87 S15G38    29.81S
Atlantic City  CLOUDY    72  66  81 S20G33    29.86R
Wrightstown    CLOUDY    72  65  80 S20G31    29.80R
Toms River       N/A     71  66  84 S18G32    29.85S
Belmar         CLOUDY    70  65  84 SE20G36   29.85F
$$

PAZ047>061-062-071-241000-
EASTERN PENNSYLVANIA

CITY           SKY/WX    TMP DP  RH WIND       PRES   REMARKS
Philadelphia   CLOUDY    74  65  73 S10G24    29.77F
Allentown      MOCLDY    70  64  81 SE14G23   29.77S
Scranton       CLOUDY    70  63  78 S10G25    29.71F
$$

CTZ002-004>006-009-010-012-RIZ004-006-007-MAZ004-011-015-241000-
SOUTHERN NEW ENGLAND
 IN CT

CITY           SKY/WX    TMP DP  RH WIND       PRES   REMARKS
Bradley INTL   CLOUDY    69  64  84 S13G21    29.94F
Hartford       CLOUDY    70  65  84 S10G23    29.94F
Danbury        CLOUDY    69  65  86 SE15G26   29.90F
Wtrbury/Oxford CLOUDY    66  65  96 S14G21    29.95F
Norwalk Harbor   N/A     68 N/A N/A SE21        N/A
Bridgeport     CLOUDY    69  65  86 SE12      29.92F
Meriden        CLOUDY    68  64  87 S14G21    29.94F
New Haven      CLOUDY    69  64  84 S15       29.95F
Chester        CLOUDY    68  66  94 SE10G18   29.98F
Groton         CLOUDY    68  65  90 S24G32    29.99F
Wilimantic     CLOUDY    68  66  93 S9G22     30.00S

 IN RI

CITY           SKY/WX    TMP DP  RH WIND       PRES   REMARKS
Providence     LGT RAIN  66  65  96 S13G23    30.05R FOG
Block Island   LGT RAIN  65  64  97 S13       30.05R FOG
Westerly       CLOUDY    67  65  93 SE15G25   30.03S
 IN MA

CITY           SKY/WX    TMP DP  RH WIND       PRES   REMARKS
Boston         LGT RAIN  63  61  93 SE12      30.05F
Worcester      RAIN      62  61  96 SE9       30.03F FOG
Westfield      CLOUDY    69  64  84 S10       29.93F
Provincetown   CLOUDY    65  60  84 S10G17    30.10S
Nantucket      CLOUDY    63  63 100 SE13      30.10S
$$

ANZ330-335-338-340-345-350-353-355-241000-
COASTAL MARINE OBSERVATIONS


STATION/POSITION TIME  SKY/WX   TEMP    WIND        PRES    VSBY  WAVE
                                AIR SEA DIR/SP/G                  HT/PER
                 (UTC)          (F)     (DEG/KT/KT) (MB)    (MI)  (FT/S)
NY HARB ENTRANCE 0750            67 65  140/ 23/ 27 1011.0          5/ 5
20 S FIRE ISLAND 0750            67 64  160/ 19/ 23 1013.5          6/ 5
GREAT SOUTH BAY  0830            67 63  160/ 16/ 21   N/A
15 E BARNEGAT LI NOT AVBL
HUDSON CANYON    0750            68 65  160/ 16/ 17 1014.5          6/ 6
KINGS POINT      0830            70 66  200/ 19/ 28 1011.8
EXECUTION ROCKS  0830            70     140/ 17/ 29   N/A
WESTERN LI SOUND 0819            70     150/ 17/ 23   N/A           2/ 3
CENTRAL LI SOUND 0815            68     160/ 17/ 21   N/A           2
EASTERN LI SOUND NOT AVBL
ROBBINS REEF     0842            69     150/ 25/ 34 1011.1
$$


>>>>>>>>>>>>>>>>>>>>>>>>>>>> KEY <<<<<<<<<<<<<<<<<<<<<<<<<<<
>                                                          <
>     SKY/WX - Sky Condition/Present Weather               <
>     TMP    - Temperature in Fahrenheit                   <
>     DP     - Dew Point in Fahrenheit                     <
>     RH     - Relative Humidity in Percent                <
>     WIND   - Direction (from) and Speed in MPH           <
>     PRES   - Mean Sea Level Pressure (inches of Hg)      <
>     WCI    - Wind Chill Index                            <
>     VSB    - VISIBILITY IN MILES                         <
>     HX     - HEAT INDEX                                  <
>     TC     - TEMPERATURE IN CELSIUS                      <
>     VRB    - VARIABLE WIND DIRECTION                     <
>                                                          <
>>>>>>>>>>>>>>>>>>>>>>>>>>>> KEY <<<<<<<<<<<<<<<<<<<<<<<<<<<




USA.gov is the U.S. government's official web portal to all federal, state and local government web resources and services.